TAX977 EDDF-LPPR

Flight info

Callsign TAX977
Flight time N/A
Altitude 35000
Route SOBRA2L/18 SOBRA Y180 DIK UN857 TOLVU DCT RAPOR/N0442F370 DCT GIMER/N0437F350 DCT ESTOC UT300 PON UN872 GODIX/N0418F310 UN872 DIDAK/N0445F370 UN872 TERPO/N0439F350 UN872 ERIGA UZ218 FUJTI DCT ATLEN DCT INSID T326 ASPOR
Aircraft A320/M-SDE3FGHIRWY/LB1

Departure

Time N/A
Airport Frankfurt Main Airport (EDDF)

Arrival

Time 2026-05-04 11:52
Airport Francisco de Sá Carneiro Airport (LPPR)
Time Latitude Longitude Altitude Speed Heading
2026-05-04 11:12 43.44905 -5.98890 35029 ft 407 kts 217°
2026-05-04 11:12 43.42581 -6.01133 35037 ft 407 kts 217°
2026-05-04 11:13 43.37946 -6.05609 35041 ft 407 kts 217°
2026-05-04 11:13 43.33303 -6.10065 35046 ft 407 kts 217°
2026-05-04 11:14 43.28686 -6.14486 35032 ft 407 kts 217°
2026-05-04 11:16 43.10092 -6.32232 35021 ft 407 kts 217°
2026-05-04 11:16 43.05436 -6.36653 35017 ft 407 kts 217°
2026-05-04 11:17 43.00804 -6.41046 35009 ft 407 kts 217°
2026-05-04 11:19 42.82170 -6.58622 35003 ft 407 kts 217°
2026-05-04 11:19 42.77507 -6.63002 35011 ft 407 kts 217°
2026-05-04 11:20 42.72850 -6.67373 35012 ft 406 kts 217°
2026-05-04 11:20 42.68194 -6.71725 35023 ft 406 kts 217°
2026-05-04 11:22 42.49579 -6.89076 35035 ft 406 kts 217°
2026-05-04 11:23 42.44913 -6.93397 35029 ft 406 kts 217°
2026-05-04 11:25 42.28718 -7.08563 35022 ft 402 kts 225°
2026-05-04 11:25 42.25265 -7.14386 35025 ft 396 kts 240°
2026-05-04 11:27 42.12175 -7.42750 34110 ft 387 kts 240°
2026-05-04 11:28 42.10753 -7.45812 33579 ft 384 kts 240°
2026-05-04 11:28 42.09344 -7.48845 33120 ft 379 kts 240°
2026-05-04 11:28 42.07953 -7.51834 32666 ft 374 kts 240°
2026-05-04 11:28 42.06582 -7.54782 32217 ft 370 kts 240°
2026-05-04 11:29 42.05224 -7.57700 31774 ft 366 kts 240°
2026-05-04 11:29 42.03878 -7.60590 31354 ft 362 kts 240°
2026-05-04 11:29 42.02562 -7.63407 30923 ft 358 kts 240°
2026-05-04 11:29 42.01241 -7.66231 30512 ft 353 kts 240°
2026-05-04 11:31 41.92542 -7.84757 27844 ft 315 kts 240°
2026-05-04 11:33 41.84563 -8.01684 25317 ft 301 kts 240°
2026-05-04 11:33 41.83443 -8.04054 24946 ft 299 kts 240°
2026-05-04 11:33 41.82278 -8.06365 24529 ft 300 kts 234°
2026-05-04 11:34 41.80835 -8.08357 24097 ft 304 kts 224°
2026-05-04 11:34 41.79085 -8.09962 23665 ft 309 kts 214°
2026-05-04 11:34 41.77184 -8.11369 23163 ft 309 kts 214°
2026-05-04 11:34 41.75311 -8.12758 22727 ft 308 kts 214°
2026-05-04 11:35 41.73441 -8.14151 22296 ft 307 kts 214°
2026-05-04 11:35 41.71577 -8.15545 21878 ft 307 kts 214°
2026-05-04 11:35 41.69643 -8.16787 21460 ft 311 kts 205°
2026-05-04 11:35 41.67593 -8.17730 21063 ft 310 kts 204°
2026-05-04 11:36 41.65553 -8.18665 20670 ft 310 kts 204°
2026-05-04 11:36 41.63537 -8.19587 20272 ft 309 kts 204°
2026-05-04 11:36 41.61499 -8.20517 19880 ft 309 kts 204°
2026-05-04 11:36 41.59466 -8.21447 19471 ft 309 kts 204°
2026-05-04 11:37 41.57429 -8.22382 19065 ft 310 kts 204°
2026-05-04 11:37 41.55392 -8.23316 18671 ft 310 kts 204°
2026-05-04 11:37 41.53339 -8.24253 18265 ft 311 kts 204°
2026-05-04 11:37 41.51286 -8.25186 17834 ft 311 kts 203°
2026-05-04 11:38 41.49240 -8.26117 17450 ft 311 kts 203°
2026-05-04 11:38 41.47190 -8.27048 17037 ft 312 kts 203°
2026-05-04 11:38 41.45137 -8.27979 16677 ft 310 kts 203°
2026-05-04 11:38 41.43098 -8.28904 16302 ft 310 kts 203°
2026-05-04 11:39 41.41062 -8.29830 15919 ft 309 kts 203°
2026-05-04 11:39 41.39022 -8.30759 15557 ft 309 kts 202°
2026-05-04 11:40 41.26800 -8.36310 13282 ft 309 kts 202°
2026-05-04 11:41 41.24791 -8.37215 12900 ft 308 kts 202°
2026-05-04 11:41 41.22771 -8.38127 12523 ft 306 kts 202°
2026-05-04 11:41 41.20757 -8.39036 12149 ft 305 kts 202°
2026-05-04 11:41 41.18755 -8.39939 11768 ft 304 kts 202°
2026-05-04 11:42 41.16752 -8.40841 11378 ft 303 kts 201°
2026-05-04 11:42 41.14761 -8.41735 10995 ft 302 kts 201°
2026-05-04 11:42 41.12776 -8.42629 10595 ft 301 kts 201°
2026-05-04 11:42 41.10791 -8.43522 10202 ft 301 kts 201°
2026-05-04 11:43 41.08816 -8.44408 9939 ft 296 kts 201°
2026-05-04 11:43 41.06887 -8.45275 9607 ft 292 kts 201°
2026-05-04 11:43 41.04969 -8.46141 9195 ft 291 kts 201°
2026-05-04 11:43 41.03040 -8.47031 8560 ft 296 kts 205°
2026-05-04 11:44 41.01324 -8.48481 8122 ft 290 kts 228°
2026-05-04 11:44 41.00165 -8.50570 7671 ft 283 kts 248°
2026-05-04 11:44 40.99626 -8.52975 7222 ft 260 kts 262°
2026-05-04 11:44 40.99296 -8.55210 6818 ft 236 kts 261°
2026-05-04 11:45 40.98989 -8.57251 6444 ft 218 kts 262°
2026-05-04 11:45 40.98845 -8.59161 6068 ft 203 kts 282°
2026-05-04 11:45 40.99403 -8.60780 5744 ft 189 kts 312°
2026-05-04 11:45 41.00448 -8.61704 5402 ft 179 kts 341°
2026-05-04 11:46 41.01640 -8.62036 5097 ft 171 kts 346°
2026-05-04 11:46 41.02779 -8.62334 4799 ft 164 kts 347°
2026-05-04 11:46 41.03873 -8.62626 4513 ft 157 kts 346°
2026-05-04 11:46 41.04924 -8.62908 4214 ft 152 kts 346°
2026-05-04 11:47 41.05926 -8.63177 4015 ft 141 kts 345°
2026-05-04 11:47 41.06852 -8.63421 3978 ft 134 kts 347°
2026-05-04 11:47 41.07767 -8.63662 3921 ft 135 kts 346°
2026-05-04 11:47 41.08692 -8.63905 3559 ft 137 kts 346°
2026-05-04 11:48 41.09633 -8.64151 3195 ft 138 kts 346°
2026-05-04 11:48 41.10568 -8.64397 2878 ft 135 kts 347°
2026-05-04 11:48 41.11484 -8.64639 2641 ft 133 kts 346°
2026-05-04 11:48 41.12387 -8.64875 2445 ft 131 kts 346°
2026-05-04 11:49 41.13277 -8.65105 2257 ft 130 kts 343°
2026-05-04 11:49 41.14171 -8.65338 2080 ft 131 kts 346°
2026-05-04 11:49 41.15061 -8.65570 1901 ft 129 kts 343°
2026-05-04 11:49 41.15945 -8.65800 1723 ft 130 kts 346°
2026-05-04 11:50 41.16843 -8.66037 1550 ft 130 kts 344°
2026-05-04 11:50 41.17732 -8.66269 1365 ft 131 kts 344°
2026-05-04 11:50 41.18612 -8.66498 1204 ft 127 kts 343°
2026-05-04 11:50 41.19484 -8.66726 1037 ft 129 kts 346°
2026-05-04 11:51 41.20358 -8.66951 883 ft 127 kts 347°
2026-05-04 11:51 41.21230 -8.67157 724 ft 128 kts 347°
2026-05-04 11:51 41.22099 -8.67390 569 ft 128 kts 346°
2026-05-04 11:51 41.22949 -8.67620 389 ft 126 kts 346°
2026-05-04 11:52 41.23804 -8.67859 274 ft 123 kts 345°
2026-05-04 11:52 41.24536 -8.68062 244 ft 85 kts 347°
2026-05-04 11:52 41.24958 -8.68162 227 ft 47 kts 352°
2026-05-04 11:52 41.25219 -8.68142 221 ft 32 kts 21°
2026-05-04 11:53 41.25271 -8.68020 212 ft 15 kts 147°
2026-05-04 11:53 41.25181 -8.67989 218 ft 12 kts 168°
2026-05-04 11:53 41.25118 -8.67971 218 ft 7 kts 168°
2026-05-04 11:53 41.25073 -8.67960 223 ft 6 kts 171°
2026-05-04 11:55 41.23940 -8.67505 255 ft 16 kts 168°
2026-05-04 11:55 41.23839 -8.67478 258 ft 14 kts 168°
2026-05-04 11:56 41.23749 -8.67455 258 ft 13 kts 169°
2026-05-04 11:56 41.23668 -8.67435 259 ft 11 kts 169°
2026-05-04 11:56 41.23606 -8.67420 261 ft 7 kts 169°
2026-05-04 11:56 41.23557 -8.67407 262 ft 6 kts 169°
2026-05-04 11:57 41.23503 -8.67393 263 ft 8 kts 168°
2026-05-04 11:57 41.23447 -8.67376 262 ft 9 kts 168°
2026-05-04 11:57 41.23407 -8.67350 262 ft 5 kts 97°
2026-05-04 11:57 41.23413 -8.67322 261 ft 5 kts 61°
2026-05-04 11:58 41.23433 -8.67277 260 ft 5 kts 59°
2026-05-04 11:58 41.23437 -8.67267 260 ft 0 kts 59°